Tracking 19564 objects as of 19-Mar-2019
HD Live streaming from Space Station
objects crossing your sky now

FLOCK 3R 2

Track FLOCK 3R 2 now!
10-day predictions
FLOCK 3R 2 is classified as:


NORAD ID: 43748
Int'l Code: 2018-096AF
Perigee: 478.2 km
Apogee: 506.0 km
Inclination: 97.5 °
Period: 94.3 minutes
Semi major axis: 6863 km
RCS: Unknown
Launch date: November 29, 2018
Source: United States (US)
Launch site: SRIHARIKOTA (SRI)
aabbcc
Your satellite tracking list
Your tracking list is empty




NASA's NSSDC Master Catalog

Two Line Element Set (TLE):
1 43748U 18096AF  19077.76061010  .00001271  00000-0  50659-4 0  9995
2 43748  97.4697 147.9254 0020240 305.2207 167.5848 15.26945611 16724
Source of the keplerian elements: AFSPC